CST,Max TemperatureF,Mean TemperatureF,Min TemperatureF,Max Dew PointF,MeanDew PointF,Min DewpointF,Max Humidity, Mean Humidity, Min Humidity, Max Sea Level PressureIn, Mean Sea Level PressureIn, Min Sea Level PressureIn, Max VisibilityMiles, Mean VisibilityMiles, Min VisibilityMiles, Max Wind SpeedMPH, Mean Wind SpeedMPH, Max Gust SpeedMPH,PrecipitationIn, CloudCover, Events, WindDirDegrees
2013-1-1,19,3,-13,14,2,-16,91,82,73,30.27,30.05,29.80,10,8,0,17,10,20,0.01,5,Fog-Snow,194
2013-1-2,31,17,2,21,11,-1,88,78,67,30.30,29.97,29.75,10,9,2,25,15,32,T,6,Snow,328
2013-1-3,25,13,1,17,8,-3,87,78,68,30.32,30.12,29.91,10,10,10,20,11,24,T,3,Snow,228
2013-1-4,30,17,3,19,10,0,96,77,58,30.13,30.04,29.94,10,7,0,16,6,18,0.00,1,Fog,297
2013-1-5,18,10,1,13,3,-2,95,84,73,30.16,30.03,29.92,10,6,0,24,8,29,T,6,Fog-Snow,322
2013-1-6,20,11,2,16,10,0,92,86,80,30.19,30.05,29.73,10,8,0,24,11,30,T,6,,187
2013-1-7,35,24,12,23,19,9,88,74,59,29.88,29.76,29.65,10,10,10,32,15,40,0.00,1,,249
2013-1-8,34,22,9,29,21,5,93,84,61,29.86,29.69,29.58,10,7,1,31,13,38,0.02,5,Rain-Snow,196
2013-1-9,32,25,18,23,17,12,81,70,58,30.19,30.03,29.71,10,10,10,32,15,41,0.00,4,,250
2013-1-10,40,32,23,34,28,19,96,71,46,29.99,29.71,29.55,10,8,2,31,18,40,0.20,6,Rain-Snow,171
2013-1-11,34,21,8,34,18,5,100,90,80,29.59,29.55,29.50,9,2,0,33,23,41,0.04,8,Rain-Snow,356
2013-1-12,9,2,-5,5,-5,-10,87,79,71,30.24,29.95,29.55,10,4,1,33,19,43,0.01,5,Snow,339
2013-1-13,6,0,-7,0,-6,-13,83,76,69,30.27,30.22,30.17,10,9,6,15,7,17,T,5,Snow,296
2013-1-14,9,3,-4,0,-5,-9,87,78,69,30.35,30.28,30.16,10,10,10,15,8,17,T,3,,224
2013-1-15,35,18,0,30,9,-4,92,80,67,30.19,29.82,29.45,10,8,2,23,14,26,0.02,6,Snow,189
2013-1-16,37,16,-5,31,0,-14,89,73,56,30.37,29.99,29.51,10,10,8,32,18,40,T,6,Snow,349
2013-1-17,11,4,-3,4,-3,-10,80,69,58,30.46,30.35,30.17,10,9,3,18,8,21,0.01,6,Snow,181
2013-1-18,19,14,8,15,11,6,88,81,73,30.08,29.84,29.72,10,7,1,21,6,23,0.08,8,Snow,92
2013-1-19,30,12,-7,20,0,-13,92,79,65,30.42,30.02,29.63,10,6,0,36,17,45,T,6,Snow,324
2013-1-20,-1,-7,-13,-9,-13,-22,78,68,57,30.45,30.41,30.31,10,7,1,24,13,30,T,5,Snow,299
2013-1-21,-8,-12,-17,-18,-21,-24,74,66,58,30.43,30.38,30.27,10,10,7,20,10,23,0.00,1,,297
2013-1-22,5,-6,-18,-2,-12,-22,79,72,65,30.40,30.31,30.13,10,10,8,9,4,12,T,5,Snow,217
2013-1-23,3,-7,-17,-3,-15,-24,87,72,57,30.75,30.48,30.12,10,10,7,30,13,35,0.00,4,,343
2013-1-24,9,-3,-15,4,-9,-25,87,72,57,30.74,30.27,29.91,10,5,0,32,16,40,0.03,8,Snow,163
2013-1-25,13,2,-9,5,-6,-13,83,74,65,30.38,30.14,29.86,10,7,2,30,14,37,T,6,Snow,328
2013-1-26,14,3,-8,6,-1,-13,83,75,66,30.35,30.16,30.05,10,10,10,24,12,29,0.00,6,,163
2013-1-27,24,16,7,16,9,3,88,78,68,30.04,29.91,29.79,10,10,8,9,5,12,0.00,5,,62
2013-1-28,27,22,17,23,18,12,100,88,75,29.84,29.79,29.74,10,5,1,12,3,13,T,8,,292
2013-1-29,23,17,11,20,16,5,100,87,73,30.01,29.79,29.68,10,7,1,24,14,30,T,8,Snow,340
2013-1-30,11,4,-4,4,-2,-10,83,78,73,30.00,29.92,29.84,10,5,1,26,16,31,T,8,Snow,326
2013-1-31,-5,-11,-17,-12,-17,-24,79,68,57,30.38,30.21,29.94,10,5,1,26,16,32,T,5,Snow,320